| time (UTC) | temp C | wind direction | speed KPH | gust KPH | rain 1hr cm | rain 24hr cm | rain mn cm | humidity % | barometer mb |
| 20260510191512 | 22 | 274 | 6.4 | 22.5 | 0.00 | 0.00 | 0.00 | 42 | 1014.3 |
| 20260510190009 | 23 | 281 | 3.2 | 24.1 | 0.00 | 0.00 | 0.00 | 42 | 1014.1 |
| 20260510184510 | 23 | 259 | 8.0 | 16.1 | 0.00 | 0.00 | 0.00 | 39 | 1014.0 |
| 20260510183018 | 23 | 210 | 6.4 | 19.3 | 0.00 | 0.00 | 0.00 | 41 | 1014.0 |
| 20260510181517 | 23 | 221 | 8.0 | 20.9 | 0.00 | 0.00 | 0.00 | 44 | 1014.2 |
| 20260510180015 | 23 | 223 | 8.0 | 30.6 | 0.00 | 0.00 | 0.00 | 42 | 1014.5 |
| 20260510174509 | 22 | 292 | 8.0 | 16.1 | 0.00 | 0.00 | 0.00 | 41 | 1014.7 |
| 20260510173012 | 22 | 216 | 8.0 | 22.5 | 0.00 | 0.00 | 0.00 | 47 | 1014.9 |
| 20260510171516 | 22 | 4 | 6.4 | 20.9 | 0.00 | 0.00 | 0.00 | 50 | 1015.1 |
| 20260510170021 | 21 | 172 | 6.4 | 22.5 | 0.00 | 0.00 | 0.00 | 49 | 1015.3 |
| 20260510164515 | 21 | 311 | 9.7 | 24.1 | 0.00 | 0.00 | 0.00 | 50 | 1015.4 |
| 20260510163008 | 21 | 307 | 12.9 | 24.1 | 0.00 | 0.00 | 0.00 | 48 | 1015.4 |
| 20260510161517 | 21 | 302 | 11.3 | 29.0 | 0.00 | 0.00 | 0.00 | 49 | 1015.4 |
| 20260510160020 | 21 | 221 | 4.8 | 20.9 | 0.00 | 0.00 | 0.00 | 48 | 1015.2 |
| 20260510154520 | 21 | 290 | 4.8 | 19.3 | 0.00 | 0.00 | 0.00 | 50 | 1015.2 |
| 20260510153037 | 21 | 257 | 8.0 | 20.9 | 0.00 | 0.00 | 0.00 | 49 | 1015.4 |
| 20260510151520 | 20 | 300 | 3.2 | 19.3 | 0.00 | 0.00 | 0.00 | 52 | 1015.5 |
| 20260510150017 | 20 | 217 | 6.4 | 29.0 | 0.00 | 0.00 | 0.00 | 53 | 1015.5 |
| 20260510144522 | 20 | 253 | 1.6 | 12.9 | 0.00 | 0.00 | 0.00 | 59 | 1015.4 |
| 20260510143022 | 20 | 309 | 4.8 | 11.3 | 0.00 | 0.00 | 0.00 | 55 | 1015.3 |
| 20260510141523 | 19 | 176 | 3.2 | 16.1 | 0.00 | 0.00 | 0.00 | 60 | 1015.2 |
| 20260510140012 | 18 | 271 | 3.2 | 16.1 | 0.00 | 0.00 | 0.00 | 62 | 1015.2 |
| 20260510134518 | 17 | 140 | 6.4 | 14.5 | 0.00 | 0.00 | 0.00 | 64 | 1015.4 |
| 20260510133021 | 16 | 312 | 3.2 | 4.8 | 0.00 | 0.00 | 0.00 | 72 | 1015.4 |
| 20260510131523 | 14 | 134 | 0.0 | 4.8 | 0.00 | 0.00 | 0.00 | 74 | 1015.6 |
| 20260510130039 | 13 | 139 | 1.6 | 4.8 | 0.00 | 0.00 | 0.00 | 77 | 1015.5 |
| 20260510124513 | 12 | 131 | 0.0 | 4.8 | 0.00 | 0.00 | 0.00 | 79 | 1015.7 |
| 20260510123020 | 10 | 117 | 0.0 | 3.2 | 0.00 | 0.00 | 0.00 | 85 | 1015.6 |
| 20260510121523 | 8 | 120 | 1.6 | 3.2 | 0.00 | 0.00 | 0.00 | 88 | 1015.5 |
| 20260510120029 | 7 | 98 | 0.0 | 3.2 | 0.00 | 0.00 | 0.00 | 91 | 1015.4 |
| 20260510114524 | 6 | 96 | 0.0 | 1.6 | 0.00 | 0.00 | 0.00 | 93 | 1015.3 |
| 20260510113015 | 4 | 134 | 0.0 | 1.6 | 0.00 | 0.00 | 0.00 | 93 | 1015.2 |
| 20260510111523 | 2 | 137 | 0.0 | 1.6 | 0.00 | 0.00 | 0.00 | 93 | 1015.3 |
| 20260510110035 | 2 | 132 | 0.0 | 1.6 | 0.00 | 0.00 | 0.00 | 92 | 1015.1 |
| 20260510104526 | 1 | 118 | 0.0 | 1.6 | 0.00 | 0.00 | 0.00 | 92 | 1014.7 |
| 20260510103012 | 1 | 63 | 0.0 | 3.2 | 0.00 | 0.00 | 0.00 | 92 | 1014.6 |
| 20260510101530 | 1 | 126 | 0.0 | 0.0 | 0.00 | 0.00 | 0.00 | 92 | 1014.2 |
| 20260510100024 | 1 | 128 | 0.0 | 0.0 | 0.00 | 0.00 | 0.00 | 93 | 1014.2 |
| 20260510094525 | 1 | 294 | 0.0 | 0.0 | 0.00 | 0.00 | 0.00 | 91 | 1013.9 |
| 20260510093008 | 1 | 294 | 0.0 | 1.6 | 0.00 | 0.00 | 0.00 | 91 | 1013.6 |
| 20260510091516 | 1 | 55 | 0.0 | 4.8 | 0.00 | 0.00 | 0.00 | 92 | 1013.5 |
| 20260510090026 | 1 | 150 | 0.0 | 1.6 | 0.00 | 0.00 | 0.00 | 92 | 1013.2 |
| 20260510084523 | 1 | 96 | 0.0 | 0.0 | 0.00 | 0.00 | 0.00 | 92 | 1013.2 |
| 20260510083027 | 1 | 96 | 0.0 | 1.6 | 0.00 | 0.00 | 0.00 | 92 | 1013.1 |
| 20260510081529 | 1 | 96 | 0.0 | 1.6 | 0.00 | 0.00 | 0.00 | 92 | 1013.0 |
| 20260510080013 | 1 | 99 | 0.0 | 1.6 | 0.00 | 0.00 | 0.00 | 92 | 1013.1 |
| 20260510074520 | 1 | 73 | 0.0 | 4.8 | 0.00 | 0.00 | 0.00 | 92 | 1013.0 |
| 20260510073022 | 2 | 340 | 0.0 | 1.6 | 0.00 | 0.00 | 0.00 | 92 | 1013.1 |
| 20260510071526 | 2 | 340 | 0.0 | 1.6 | 0.00 | 0.00 | 0.00 | 91 | 1013.0 |
| 20260510070032 | 2 | 18 | 0.0 | 1.6 | 0.00 | 0.00 | 0.00 | 91 | 1012.8 |
| 20260510064529 | 2 | 136 | 0.0 | 0.0 | 0.00 | 0.00 | 0.00 | 91 | 1012.7 |
| 20260510063020 | 2 | 289 | 0.0 | 1.6 | 0.00 | 0.00 | 0.00 | 91 | 1012.8 |
| 20260510061525 | 2 | 134 | 0.0 | 1.6 | 0.00 | 0.00 | 0.00 | 91 | 1012.8 |
| 20260510060032 | 3 | 123 | 0.0 | 1.6 | 0.00 | 0.00 | 0.00 | 91 | 1012.9 |
| 20260510054531 | 3 | 281 | 0.0 | 1.6 | 0.00 | 0.00 | 0.00 | 90 | 1012.8 |
| 20260510053022 | 3 | 151 | 0.0 | 3.2 | 0.00 | 0.00 | 0.00 | 91 | 1012.7 |
| 20260510051522 | 3 | 26 | 0.0 | 0.0 | 0.00 | 0.00 | 0.00 | 91 | 1013.0 |
| 20260510050023 | 3 | 45 | 0.0 | 1.6 | 0.00 | 0.00 | 0.00 | 90 | 1012.8 |
| 20260510044527 | 3 | 328 | 0.0 | 4.8 | 0.00 | 0.00 | 0.00 | 90 | 1012.9 |
| 20260510043027 | 4 | 234 | 0.0 | 1.6 | 0.00 | 0.00 | 0.00 | 89 | 1013.0 |
| 20260510041526 | 4 | 232 | 0.0 | 4.8 | 0.00 | 0.00 | 0.00 | 88 | 1013.0 |
| 20260510040024 | 5 | 283 | 0.0 | 3.2 | 0.00 | 0.00 | 0.00 | 89 | 1013.0 |
| 20260510034527 | 5 | 335 | 0.0 | 4.8 | 0.00 | 0.00 | 0.00 | 90 | 1012.9 |
| 20260510033027 | 5 | 75 | 0.0 | 0.0 | 0.00 | 0.00 | 0.00 | 88 | 1012.7 |
| 20260510031528 | 6 | 76 | 0.0 | 0.0 | 0.00 | 0.00 | 0.00 | 89 | 1012.9 |
| 20260510030028 | 6 | 134 | 0.0 | 0.0 | 0.00 | 0.00 | 0.00 | 87 | 1012.9 |
| 20260510024521 | 6 | 134 | 0.0 | 0.0 | 0.00 | 0.00 | 0.00 | 88 | 1012.7 |
| 20260510023027 | 6 | 134 | 0.0 | 0.0 | 0.00 | 0.00 | 0.00 | 86 | 1012.7 |
| 20260510021530 | 7 | 134 | 0.0 | 0.0 | 0.00 | 0.00 | 0.00 | 85 | 1012.3 |
| 20260510020030 | 7 | 134 | 0.0 | 0.0 | 0.00 | 0.00 | 0.00 | 84 | 1012.1 |
| 20260510014527 | 7 | 134 | 0.0 | 0.0 | 0.00 | 0.00 | 0.00 | 83 | 1012.0 |
| 20260510013022 | 8 | 134 | 0.0 | 0.0 | 0.00 | 0.00 | 0.00 | 81 | 1011.5 |
| 20260510011528 | 9 | 137 | 0.0 | 0.0 | 0.00 | 0.00 | 0.00 | 80 | 1011.4 |
| 20260510010014 | 10 | 137 | 0.0 | 0.0 | 0.00 | 0.00 | 0.00 | 77 | 1011.3 |
| 20260510004516 | 11 | 224 | 0.0 | 0.0 | 0.00 | 0.00 | 0.00 | 73 | 1011.0 |
| 20260510003019 | 12 | 284 | 0.0 | 0.0 | 0.00 | 0.00 | 0.00 | 69 | 1010.7 |
| 20260510001523 | 13 | 284 | 0.0 | 0.0 | 0.00 | 0.00 | 0.00 | 65 | 1010.7 |
| 20260510000009 | 15 | 284 | 0.0 | 0.0 | 0.00 | 0.00 | 0.00 | 62 | 1010.5 |
| 20260509234523 | 17 | 284 | 1.6 | 9.7 | 0.00 | 0.00 | 0.00 | 53 | 1010.3 |
| 20260509233016 | 18 | 266 | 3.2 | 9.7 | 0.00 | 0.00 | 0.00 | 49 | 1010.1 |
| 20260509231520 | 19 | 278 | 1.6 | 6.4 | 0.00 | 0.00 | 0.00 | 47 | 1009.9 |
| 20260509230024 | 19 | 297 | 4.8 | 11.3 | 0.00 | 0.00 | 0.00 | 46 | 1010.0 |
| 20260509224521 | 19 | 265 | 4.8 | 9.7 | 0.00 | 0.00 | 0.00 | 48 | 1010.2 |
| 20260509223015 | 19 | 274 | 8.0 | 12.9 | 0.00 | 0.00 | 0.00 | 44 | 1010.3 |
| 20260509221518 | 19 | 287 | 9.7 | 20.9 | 0.00 | 0.00 | 0.00 | 44 | 1010.4 |
| 20260509220022 | 18 | 283 | 1.6 | 11.3 | 0.00 | 0.00 | 0.00 | 45 | 1010.2 |
| 20260509214524 | 19 | 309 | 4.8 | 16.1 | 0.00 | 0.00 | 0.00 | 46 | 1010.1 |
| 20260509213012 | 19 | 283 | 3.2 | 8.0 | 0.00 | 0.00 | 0.00 | 47 | 1009.9 |
| 20260509211515 | 20 | 313 | 9.7 | 16.1 | 0.00 | 0.00 | 0.00 | 40 | 1009.8 |
| 20260509210022 | 19 | 205 | 6.4 | 16.1 | 0.00 | 0.00 | 0.00 | 44 | 1009.7 |
| 20260509204523 | 18 | 217 | 8.0 | 14.5 | 0.00 | 0.00 | 0.00 | 43 | 1009.6 |
| 20260509203033 | 20 | 290 | 8.0 | 14.5 | 0.00 | 0.00 | 0.00 | 42 | 1009.3 |
| 20260509201515 | 20 | 285 | 6.4 | 14.5 | 0.00 | 0.00 | 0.00 | 44 | 1009.3 |
| 20260509200014 | 19 | 245 | 9.7 | 17.7 | 0.00 | 0.00 | 0.00 | 44 | 1009.2 |
| 20260509194522 | 19 | 267 | 8.0 | 14.5 | 0.00 | 0.00 | 0.00 | 41 | 1009.2 |
| 20260509193026 | 20 | 236 | 4.8 | 14.5 | 0.00 | 0.00 | 0.00 | 48 | 1009.1 |